Location: Hamilton
(37.7830°S, 175.2830°E)
Time: 01:21:15
(UTC+13:00)

Terra - Pass Details

Date: 24 January 2019
Orbit: 701 x 703 km, 98.2° (Epoch: 20 February)

Event Time Altitude Azimuth Distance (km) Brightness Sun altitude
Rises 23:12:10 0° 153° (SSE) 3,127 5.5 -24.3°
Reaches altitude 10° 23:14:53 10° 138° (SE) 2,200 4.5 -24.6°
Enters shadow 23:16:46 18° 118° (ESE) 1,698 3.7 -24.9°
